This is the latest recevied weather packets stored in our database for station/object SQ7IQO. If no packets are shown the sender has not sent any weather packets the latest 10 day(s).
| Time | Temp. | Humidity | Pressure | Rain* | Wind** | Luminosity | Snow |
|---|---|---|---|---|---|---|---|
| 1788009222 | 21.67° C | 71% | 1015 hPa | 0 mm | 0.89 m/s, ° | - | - |
| 1788009162 | 21.67° C | 71% | 1015.1 hPa | 0 mm | 1.79 m/s, ° | - | - |
| 1788009102 | 21.67° C | 71% | 1015.1 hPa | 0 mm | 1.34 m/s, ° | - | - |
| 1788009042 | 21.67° C | 70% | 1015.1 hPa | 0 mm | 1.34 m/s, ° | - | - |
| 1788008982 | 21.67° C | 70% | 1015.1 hPa | 0 mm | 0.89 m/s, ° | - | - |
| 1788008922 | 21.67° C | 70% | 1015.1 hPa | 0 mm | 0.89 m/s, ° | - | - |
| 1788008862 | 21.67° C | 70% | 1015.1 hPa | 0 mm | 0.89 m/s, ° | - | - |
| 1788008802 | 21.67° C | 69% | 1015.1 hPa | 0 mm | 1.34 m/s, ° | - | - |
| 1788008742 | 22.22° C | 69% | 1015.1 hPa | 0 mm | 2.24 m/s, ° | - | - |
| 1788008682 | 22.78° C | 67% | 1015.1 hPa | 0 mm | 2.24 m/s, ° | - | - |
| 1788008621 | 23.33° C | 65% | 1015.2 hPa | 0 mm | 1.34 m/s, ° | - | - |
| 1788008561 | 23.89° C | 64% | 1015.1 hPa | 0 mm | 1.34 m/s, ° | - | - |
| 1788008501 | 23.89° C | 63% | 1015 hPa | 0 mm | 1.34 m/s, ° | - | - |
| 1788008441 | 24.44° C | 62% | 1015 hPa | 0 mm | 1.34 m/s, ° | - | - |
| 1788008382 | 24.44° C | 62% | 1015 hPa | 0 mm | 1.34 m/s, ° | - | - |
| 1788008322 | 23.89° C | 62% | 1057.9 hPa | 0 mm | 0.89 m/s, ° | - | - |
| 1788008262 | 23.89° C | 63% | 1015 hPa | 0 mm | 0.45 m/s, ° | - | - |
| 1788008202 | 23.33° C | 64% | 1015 hPa | 0 mm | 0.89 m/s, ° | - | - |
| 1788008142 | 22.78° C | 68% | 1014.9 hPa | 0 mm | 0.45 m/s, ° | - | - |
| 1788008082 | 22.22° C | 69% | - | 0 mm | 0.89 m/s, ° | - | - |
| 1788008021 | 22.22° C | 69% | 1015 hPa | 0 mm | 1.34 m/s, ° | - | - |
| 1788007961 | 22.22° C | 68% | 1014.9 hPa | 0 mm | 0.89 m/s, ° | - | - |
| 1788007901 | 22.22° C | 66% | 1014.9 hPa | 0 mm | 1.79 m/s, ° | - | - |
| 1788007841 | 22.78° C | 65% | 1014.9 hPa | 0 mm | 1.34 m/s, ° | - | - |
| 1788007781 | 23.89° C | 64% | 1014.9 hPa | 0 mm | 1.34 m/s, ° | - | - |
* Rain latest hour (hover to see other rain measurements)
** Current wind speed in m/s (hover to see current wind gust speed)